Temperature
20 20 20 20 20 19 19 19 19 19 18 18 18 18 18 18 17 17 17 17 17 17 16 16 16 16 16 16 16 16 15 15 15 15 15 15 15 15 15 15 15 15 15
20 20 20 20 20 19 19 19 19 18 18 18 18 18 18 17 17 17 17 17 17 17 16 16 16 16 16 16 16 15 15 15 15 15 15 15 15 15 15 15 15 15 15
20 20 20 20 19 19 19 19 19 18 18 18 18 18 17 17 17 17 17 17 17 16 16 16 16 16 16 16 15 15 15 15 15 15 15 15 15 15 15 15 15 15 15
21 20 20 20 20 19 19 19 19 18 18 18 18 17 17 17 17 17 17 17 16 16 16 16 16 16 16 15 15 15 15 15 15 15 15 15 15 14 14 14 14 14 14
21 20 20 20 20 19 19 19 18 18 18 18 17 17 17 17 17 17 17 16 16 16 16 16 16 15 15 15 15 15 15 15 15 14 14 14 14 14 14 14 14 14 14
20 20 20 20 19 19 19 19 18 18 18 17 17 17 17 17 17 17 17 16 16 16 16 16 15 15 15 15 15 15 15 14 14 14 14 14 14 14 14 14 14 14 14
20 20 20 19 19 19 18 18 18 18 18 17 17 17 17 17 17 16 16 16 16 16 15 15 15 15 15 15 15 15 14 14 14 14 14 14 14 14 14 13 13 13 13
20 19 19 19 19 18 18 18 18 18 17 17 17 17 16 16 16 16 16 16 15 15 15 15 15 15 15 15 14 14 14 14 14 14 14 14 13 13 13 13 13 13 13
20 19 19 18 18 18 18 18 17 17 17 17 17 16 16 16 16 16 15 15 15 15 15 15 14 15 14 14 14 14 14 14 14 14 13 13 13 13 13 13 13 13 13
19 19 18 18 18 18 18 17 17 17 17 16 16 16 16 16 16 15 15 15 15 15 14 15 14 14 14 14 14 14 14 14 14 13 13 13 13 13 13 12 12 12 12
19 18 18 18 17 17 17 17 17 16 16 16 16 16 16 15 15 15 15 14 14 14 14 14 14 14 14 14 14 14 14 13 13 13 13 13 13 13 12 12 12 12 12
18 18 18 17 17 17 17 16 16 16 16 15 15 15 15 15 15 14 14 14 14 14 14 14 14 14 14 13 13 13 13 13 13 12 12 12 12 12 12 12 12 12 12
18 18 17 17 17 16 16 16 16 15 15 15 15 15 15 14 14 14 14 14 13 13 13 13 13 13 13 13 13 13 13 13 12 12 12 12 12 12 12 12 12 12 12
17 17 17 17 16 16 16 16 15 15 15 14 14 14 14 14 14 13 13 13 13 13 13 13 13 13 13 13 13 13 12 12 12 12 12 12 12 12 11 11 11 11 11
17 17 16 16 16 16 15 15 15 15 14 14 14 14 14 13 13 13 13 13 13 13 13 13 13 13 12 12 12 12 12 12 12 11 11 11 11 11 11 11 11 11 11
16 16 16 16 15 15 15 14 14 14 14 14 14 13 13 13 13 13 13 13 13 13 12 12 12 12 12 12 12 12 12 12 11 11 11 11 11 11 10 10 10 10 10
16 15 15 15 15 15 14 14 14 13 13 13 13 13 13 13 13 12 12 12 12 12 12 12 12 12 12 12 11 11 11 11 11 11 10 10 10 10 10 10 10 10 9
15 15 15 14 14 14 14 14 13 13 13 13 13 13 12 12 12 12 12 12 12 12 12 11 11 11 11 11 11 11 11 11 10 10 10 10 10 10 9 9 9 9 9
15 15 14 14 14 14 13 13 13 13 13 12 12 12 12 12 12 11 11 11 11 11 11 11 11 11 11 11 11 10 10 10 10 10 10 9 9 9 9 8 8 8 8
14 14 14 14 13 13 13 13 12 12 12 12 12 12 11 11 11 11 11 11 11 11 11 11 11 11 10 10 10 10 10 10 9 9 9 9 9 8 8 8 8 8 7
13 13 13 13 13 13 12 12 12 12 12 12 11 11 11 11 11 11 11 11 11 11 10 10 10 10 10 10 10 10 9 9 9 9 9 8 8 8 8 7 7 7 7
13 13 13 13 12 12 12 12 12 12 12 11 11 11 11 11 11 10 10 10 10 10 10 10 10 10 9 9 9 9 9 9 9 8 8 8 8 7 7 7 7 7 7
13 13 12 12 12 12 12 11 11 11 11 11 11 11 11 11 10 10 10 10 10 10 10 10 9 9 9 9 9 9 8 8 8 8 8 7 7 7 7 6 6 6 6
12 12 12 12 11 11 11 11 11 11 11 11 11 11 10 10 10 10 10 10 10 9 9 9 9 9 9 9 8 8 8 8 7 7 7 7 7 6 6 6 6 6 6
12 12 12 11 11 11 11 11 11 11 10 10 10 10 10 10 10 10 10 9 9 9 9 9 9 9 8 8 8 8 7 7 7 7 7 6 6 6 6 5 5 5 5
11 11 11 11 11 11 11 11 10 10 10 10 10 10 10 9 9 9 9 9 9 9 8 8 8 8 8 8 7 7 7 7 6 6 6 6 6 5 5 5 5 5 5
Wind_Speed
5 4 4 3 4 3 3 4 3 3 3 3 3 3 3 2 2 2 3 2 3 2 2 2 3 3 2 2 2 2 2 2 3 3 2 2 2 3 2 2 2 3 4
4 4 3 3 3 3 4 4 4 4 3 3 3 3 3 3 3 3 3 3 3 3 3 3 3 2 1 2 2 2 2 2 3 3 3 2 2 2 2 2 2 2 3
5 4 3 3 4 4 4 4 3 4 3 3 3 3 4 4 4 4 4 4 4 4 3 3 3 2 2 1 2 2 2 2 2 2 3 2 2 2 1 2 2 2 3
6 6 5 5 5 5 4 3 3 3 3 3 3 4 4 4 4 4 3 3 3 3 2 3 3 3 3 2 2 2 2 2 2 2 2 2 2 2 1 1 2 2 2
5 5 6 5 4 4 4 3 3 3 3 3 3 3 3 3 3 3 3 4 3 2 2 2 3 3 2 2 2 2 2 2 1 1 1 2 2 1 2 2 2 2 2
5 5 4 3 4 4 4 4 3 3 3 2 3 3 3 3 3 4 4 3 3 2 2 2 2 1 1 1 2 2 3 3 3 2 2 2 3 2 2 2 1 1 2
5 4 4 4 4 4 4 3 4 4 3 3 3 3 3 3 2 3 4 4 3 3 2 2 1 1 0 1 1 1 1 2 3 3 3 3 3 3 2 2 2 2 2
4 4 3 4 4 3 3 3 3 3 3 3 2 2 2 2 2 3 4 3 2 1 2 2 1 1 1 1 1 1 0 1 2 2 3 3 3 2 3 2 2 2 2
4 4 4 4 4 4 3 3 2 2 1 2 1 2 2 2 2 3 4 2 2 1 1 1 1 1 1 2 2 1 0 1 1 1 1 2 2 1 2 1 1 1 2
5 5 5 5 5 4 4 3 2 2 2 1 1 2 2 2 2 3 5 3 2 2 1 1 2 2 2 3 2 2 1 2 1 1 1 2 2 1 1 2 2 2 2
4 4 4 5 5 4 3 3 3 2 2 1 1 1 2 2 2 2 4 4 3 3 2 1 1 2 3 3 2 2 3 2 0 0 1 2 2 2 1 2 2 3 3
3 3 4 4 4 4 4 3 3 3 3 1 1 1 1 1 1 2 3 4 4 3 3 2 2 2 3 3 2 2 2 2 1 0 0 1 2 2 2 2 2 2 3
2 3 3 3 3 4 5 4 3 3 3 2 2 1 2 2 1 1 3 3 3 3 2 2 1 2 2 2 2 2 2 2 1 1 1 2 2 2 2 2 2 2 2
3 3 3 4 3 3 3 4 4 3 3 3 2 2 2 1 1 1 1 2 2 1 1 0 1 1 1 1 1 1 1 1 2 2 2 2 1 2 2 2 2 2 2
3 3 3 3 3 3 2 2 3 3 5 5 4 4 4 3 4 4 3 2 2 2 2 1 1 1 1 0 0 0 1 1 1 1 1 1 2 2 2 1 1 1 1
3 2 2 3 3 3 3 1 2 1 2 4 5 5 4 5 4 4 3 3 3 4 3 1 1 1 1 2 1 1 1 1 1 1 1 1 2 2 2 2 1 1 2
4 3 2 3 3 3 3 3 1 2 4 2 1 2 3 3 3 3 3 3 3 4 2 2 2 2 2 2 2 2 2 1 1 2 2 2 2 1 1 1 1 1 2
3 3 3 3 3 3 3 3 3 2 1 2 2 1 1 2 3 3 4 4 2 1 1 2 2 2 2 2 2 2 2 1 1 1 1 1 1 1 1 2 2 2 2
3 3 3 3 3 2 2 2 2 2 1 1 1 1 1 2 2 3 4 2 2 2 2 2 3 3 3 3 2 2 2 1 1 1 1 1 1 1 1 2 2 2 2
2 3 3 3 3 3 3 3 2 2 2 2 2 1 0 1 1 0 1 1 2 2 2 3 3 3 3 2 2 2 1 1 1 1 1 1 2 1 2 3 3 3 3
2 2 3 2 3 3 3 3 3 3 3 3 3 3 3 2 2 3 2 2 3 3 2 2 2 2 2 2 2 2 2 2 2 2 2 1 1 2 2 3 3 3 3
3 3 3 3 3 3 3 3 3 3 3 3 3 2 4 3 3 3 3 3 3 2 2 2 2 2 2 2 2 2 2 1 1 1 1 1 2 2 2 3 3 3 3
3 2 2 2 2 2 2 2 2 3 3 3 3 2 2 3 3 3 3 2 2 2 2 2 2 2 2 2 2 2 2 2 2 2 2 2 2 2 2 3 3 4 4
3 3 3 2 2 2 2 2 2 2 2 3 3 3 3 3 3 3 2 2 1 1 1 2 2 2 2 2 2 2 2 3 2 2 3 2 2 2 2 3 3 4 4
3 3 3 3 2 2 2 2 1 1 2 2 2 2 2 2 2 2 2 1 1 1 1 1 1 1 2 2 2 2 2 2 3 3 2 2 3 3 3 3 3 4 4
3 3 2 2 2 2 2 2 2 2 2 2 2 2 2 2 2 2 1 1 1 1 1 1 1 1 1 1 2 1 2 2 2 2 2 2 3 3 3 3 4 4 4
Wind_Direction
205 207 209 206 203 198 203 214 218 225 219 217 218 211 215 219 212 200 216 214 216 236 245 241 260 259 239 224 200 191 202 204 245 282 280 283 272 272 297 288 271 266 270
190 185 202 209 198 202 213 218 214 219 222 215 209 210 218 226 218 208 220 223 220 229 239 237 251 245 229 214 193 201 209 209 218 264 287 294 277 266 275 276 285 282 280
176 180 202 213 213 220 224 221 217 218 220 209 196 214 225 227 221 220 218 223 223 225 227 229 237 224 240 238 215 219 222 220 215 231 277 289 282 283 289 288 288 291 284
179 184 198 218 223 226 223 219 223 217 212 218 218 224 228 225 218 221 218 221 224 233 236 238 235 228 227 223 223 220 212 211 210 217 269 295 285 284 260 274 296 294 293
184 196 209 217 217 218 217 219 221 219 225 221 218 223 232 228 228 223 218 217 218 230 242 248 242 229 216 209 219 212 196 205 208 220 258 289 295 287 259 251 264 288 284
183 204 205 199 209 214 213 207 209 222 226 218 217 218 225 239 240 203 194 204 204 208 236 259 246 224 225 197 189 186 183 193 210 220 248 257 268 260 256 240 231 261 277
192 202 197 194 202 212 209 197 208 219 215 219 224 218 230 250 233 197 187 185 187 202 216 234 245 258 190 201 175 159 159 189 192 199 220 249 254 247 240 250 230 231 249
195 205 207 203 208 206 195 203 212 208 214 227 232 229 234 260 228 199 184 181 175 198 208 211 212 254 245 169 160 116 334 273 225 204 214 243 250 239 216 227 242 261 275
196 201 202 204 206 198 196 213 213 190 216 241 247 237 234 261 227 193 174 169 167 217 231 216 205 216 235 132 137 157 312 315 304 160 200 255 268 260 182 154 180 238 275
203 200 196 196 199 196 195 197 185 173 202 213 268 264 243 255 243 189 174 168 175 212 234 234 213 197 178 154 163 176 228 278 315 9 9 346 326 310 206 205 220 230 248
198 185 186 193 192 188 182 182 171 173 168 165 201 289 280 267 253 190 170 175 190 195 214 245 244 193 176 180 180 203 227 227 255 315 340 344 344 326 302 266 241 229 231
180 178 184 185 181 171 166 176 172 168 166 182 198 306 315 302 260 216 180 183 184 183 209 226 224 179 170 175 191 219 194 163 157 110 341 325 319 315 308 297 281 255 242
167 181 182 173 171 169 170 173 172 175 179 198 207 238 290 311 297 239 195 189 194 195 218 217 196 173 170 168 182 180 166 162 164 176 258 286 299 308 319 320 325 301 286
176 185 179 171 170 166 170 176 179 189 194 203 214 228 254 275 284 258 212 193 179 177 203 117 102 126 129 141 128 173 195 195 195 211 252 288 323 337 330 325 326 330 322
182 187 181 177 170 164 161 179 192 206 200 200 215 216 215 234 245 224 191 192 193 179 140 105 83 101 107 130 198 195 181 182 218 251 261 294 316 317 312 315 317 328 312
181 188 180 174 165 158 151 97 47 168 192 199 205 209 226 221 207 192 181 169 157 144 131 152 181 195 218 225 230 247 230 224 237 229 239 262 280 289 306 322 329 310 300
177 180 173 174 175 172 171 165 149 40 51 68 133 182 197 187 170 164 150 127 124 132 137 184 204 221 238 240 231 235 245 240 227 220 235 258 276 288 302 313 321 316 308
166 167 168 176 177 174 177 174 169 163 114 25 17 48 131 155 158 148 128 105 93 116 190 216 225 230 236 239 236 238 245 241 230 236 245 259 270 283 297 298 294 295 296
161 167 165 166 166 164 163 160 164 166 165 159 21 7 39 100 117 133 135 143 197 229 237 236 237 238 240 238 237 234 231 228 233 240 257 266 268 271 279 285 283 282 281
148 164 163 160 162 160 163 169 176 180 189 205 217 231 160 90 91 180 203 205 216 238 247 248 246 240 237 234 228 218 219 229 239 251 262 270 273 266 265 271 276 279 277
165 171 169 169 179 183 185 191 194 195 207 223 234 229 199 197 208 217 226 224 226 233 235 244 250 240 235 232 229 221 220 233 239 251 260 268 274 278 273 270 273 272 277
173 177 179 185 191 194 195 196 198 201 212 226 242 239 207 209 215 220 226 234 240 241 236 227 231 228 219 216 218 218 226 237 254 272 284 286 281 272 269 270 274 279 282
165 170 174 182 191 192 196 200 204 207 214 223 229 228 221 223 225 228 233 238 241 237 224 211 211 227 232 228 224 214 218 233 240 238 248 267 277 279 276 275 278 285 283
157 167 178 183 182 185 197 207 217 220 220 224 230 229 227 226 227 232 237 238 236 241 217 200 201 211 219 227 229 227 236 244 244 238 237 248 265 278 281 285 288 290 291
156 162 173 178 178 182 188 198 206 210 214 212 220 227 231 223 219 225 230 227 221 231 227 206 220 224 223 231 242 244 250 250 250 247 241 241 252 262 270 280 284 288 289
155 158 164 164 169 177 183 197 212 213 210 214 223 221 219 220 223 224 218 211 211 218 248 243 234 236 246 255 259 268 257 260 270 273 254 249 259 270 278 278 281 280 282
Height
1522 1523 1524 1525 1525 1526 1526 1527 1527 1527 1527 1527 1527 1527 1527 1527 1527 1526 1526 1525 1525 1525 1524 1524 1523 1522 1521 1521 1521 1522 1522 1523 1522 1521 1521 1520 1520 1520 1520 1519 1519 1519 1519
1518 1520 1521 1522 1523 1523 1523 1524 1524 1524 1524 1525 1525 1525 1524 1524 1524 1524 1523 1523 1522 1522 1522 1521 1520 1519 1519 1519 1519 1519 1520 1520 1520 1518 1518 1517 1517 1517 1517 1516 1516 1516 1516
1515 1517 1518 1519 1520 1520 1521 1521 1521 1521 1521 1522 1522 1522 1522 1522 1521 1521 1521 1520 1520 1519 1519 1518 1518 1517 1517 1516 1517 1517 1517 1517 1517 1516 1515 1515 1515 1514 1514 1514 1514 1514 1514
1512 1513 1514 1515 1516 1517 1518 1518 1519 1519 1519 1519 1519 1519 1519 1519 1519 1518 1518 1518 1517 1517 1516 1516 1516 1515 1515 1515 1515 1515 1515 1515 1514 1514 1513 1512 1512 1512 1512 1511 1511 1511 1511
1509 1510 1510 1512 1513 1514 1515 1515 1516 1516 1516 1515 1515 1515 1516 1516 1515 1515 1515 1515 1514 1514 1514 1514 1514 1513 1513 1513 1513 1512 1512 1512 1511 1511 1510 1510 1509 1509 1509 1508 1508 1508 1508
1506 1507 1508 1509 1509 1510 1511 1512 1512 1512 1512 1512 1512 1512 1512 1512 1512 1512 1512 1512 1512 1512 1512 1512 1511 1511 1511 1511 1510 1510 1510 1510 1509 1508 1508 1507 1507 1507 1506 1506 1505 1505 1505
1503 1504 1505 1506 1506 1507 1508 1508 1508 1509 1509 1509 1508 1508 1508 1509 1509 1509 1509 1509 1509 1509 1509 1509 1508 1508 1508 1508 1508 1508 1508 1507 1507 1507 1505 1505 1505 1504 1504 1503 1503 1502 1502
1499 1500 1501 1503 1503 1504 1504 1504 1504 1505 1505 1505 1505 1505 1505 1505 1506 1506 1507 1507 1506 1507 1507 1507 1506 1506 1506 1506 1506 1505 1505 1505 1505 1504 1504 1503 1503 1502 1502 1501 1500 1500 1499
1496 1497 1498 1499 1500 1500 1500 1501 1501 1501 1502 1502 1502 1502 1502 1503 1503 1503 1504 1504 1504 1504 1505 1505 1504 1504 1504 1504 1504 1503 1502 1502 1502 1502 1502 1501 1501 1500 1499 1499 1498 1497 1496
1492 1493 1494 1496 1496 1496 1497 1498 1498 1498 1498 1499 1499 1499 1499 1499 1500 1500 1501 1501 1501 1501 1502 1502 1502 1501 1501 1502 1501 1501 1500 1500 1500 1499 1499 1499 1498 1497 1497 1496 1496 1495 1494
1489 1489 1490 1492 1493 1494 1494 1495 1495 1495 1496 1496 1496 1496 1496 1496 1496 1497 1497 1497 1498 1498 1499 1499 1498 1498 1498 1499 1499 1498 1498 1498 1497 1497 1496 1495 1495 1494 1494 1494 1493 1493 1492
1485 1486 1487 1488 1489 1490 1491 1492 1492 1493 1493 1493 1493 1492 1493 1493 1493 1494 1494 1495 1495 1495 1495 1496 1496 1496 1495 1495 1495 1495 1495 1495 1494 1493 1493 1492 1492 1492 1491 1491 1491 1490 1489
1483 1483 1484 1485 1486 1487 1487 1488 1489 1490 1490 1490 1490 1489 1490 1490 1490 1491 1491 1491 1492 1493 1493 1493 1493 1493 1493 1492 1492 1492 1492 1491 1491 1490 1490 1489 1489 1489 1489 1489 1488 1487 1486
1480 1481 1481 1482 1483 1483 1484 1485 1486 1486 1487 1487 1487 1487 1487 1487 1487 1487 1488 1488 1489 1489 1490 1490 1490 1490 1490 1489 1489 1489 1488 1488 1488 1487 1487 1487 1487 1486 1486 1485 1485 1484 1483
1477 1478 1479 1479 1480 1481 1482 1483 1483 1484 1485 1484 1484 1484 1484 1484 1484 1485 1485 1485 1486 1486 1487 1487 1487 1487 1486 1486 1486 1485 1485 1485 1485 1484 1485 1484 1483 1483 1482 1482 1481 1480 1479
1475 1475 1476 1477 1478 1479 1479 1480 1481 1482 1482 1482 1482 1482 1481 1482 1482 1482 1483 1483 1484 1484 1484 1484 1484 1484 1483 1483 1483 1482 1482 1482 1481 1482 1481 1481 1480 1479 1479 1478 1478 1477 1476
1473 1473 1474 1475 1475 1476 1477 1478 1478 1479 1480 1480 1480 1480 1480 1480 1480 1481 1481 1481 1482 1482 1481 1481 1481 1481 1481 1481 1480 1480 1479 1479 1479 1479 1478 1477 1477 1476 1475 1474 1474 1473 1472
1471 1471 1472 1473 1473 1474 1475 1476 1476 1477 1477 1478 1479 1479 1479 1479 1479 1479 1479 1479 1479 1479 1479 1479 1479 1479 1479 1478 1478 1477 1477 1476 1476 1475 1475 1474 1473 1472 1471 1471 1470 1470 1469
1469 1469 1470 1471 1472 1473 1474 1474 1475 1475 1475 1475 1476 1477 1477 1477 1477 1477 1477 1477 1476 1476 1476 1476 1477 1477 1476 1476 1475 1474 1474 1473 1472 1472 1471 1470 1470 1468 1468 1467 1467 1466 1466
1467 1468 1469 1469 1470 1471 1472 1472 1473 1473 1474 1474 1474 1474 1475 1475 1475 1474 1475 1475 1474 1474 1474 1474 1474 1474 1474 1473 1472 1472 1471 1470 1470 1469 1468 1467 1466 1465 1465 1464 1463 1462 1462
1466 1467 1467 1468 1468 1469 1469 1470 1470 1471 1472 1472 1472 1473 1473 1473 1473 1472 1472 1472 1472 1472 1472 1472 1472 1472 1471 1470 1470 1469 1468 1468 1467 1466 1465 1464 1463 1462 1461 1461 1460 1459 1458
1464 1464 1465 1466 1467 1467 1467 1468 1468 1468 1469 1470 1470 1470 1470 1470 1470 1470 1470 1470 1470 1470 1470 1469 1469 1469 1468 1467 1466 1466 1465 1464 1463 1463 1462 1461 1460 1459 1458 1458 1457 1456 1455
1462 1462 1463 1464 1465 1465 1465 1465 1466 1466 1466 1466 1467 1467 1468 1468 1468 1468 1468 1467 1467 1467 1467 1466 1466 1466 1465 1464 1463 1463 1462 1461 1461 1460 1459 1458 1457 1456 1455 1454 1453 1452 1451
1460 1460 1461 1462 1462 1463 1463 1463 1464 1464 1463 1464 1464 1465 1465 1465 1465 1465 1465 1465 1465 1464 1464 1464 1463 1462 1462 1461 1461 1460 1459 1459 1458 1457 1456 1455 1453 1453 1452 1451 1450 1449 1447
1458 1458 1459 1460 1460 1461 1461 1461 1461 1461 1461 1462 1462 1462 1462 1462 1462 1462 1463 1463 1463 1462 1461 1461 1460 1460 1459 1459 1458 1457 1456 1456 1455 1454 1452 1451 1450 1449 1448 1447 1446 1445 1443
1456 1457 1457 1458 1458 1459 1459 1459 1459 1460 1460 1460 1460 1460 1460 1460 1460 1460 1460 1460 1460 1459 1458 1458 1457 1457 1456 1456 1455 1454 1453 1452 1451 1450 1448 1447 1446 1445 1444 1442 1442 1440 1439